Weather reports worldwide

Advertisment
Montpellier, France (7643): temperature & dewpoint: 09.12.2018 07:00:00 - 15.12.2018 07:00:00 (CET)Montpellier, France (7643): temperature 5cm: 09.12.2018 07:00:00 - 15.12.2018 07:00:00 (CET)Montpellier, France (7643): temperature -20cm & temperature -100cm: 09.12.2018 07:00:00 - 15.12.2018 07:00:00 (CET)Montpellier, France (7643): wind speed & gusts: 09.12.2018 07:00:00 - 15.12.2018 07:00:00 (CET)Montpellier, France (7643): wind direction: 09.12.2018 07:00:00 - 15.12.2018 07:00:00 (CET)Montpellier, France (7643): reduced air pressure: 09.12.2018 07:00:00 - 15.12.2018 07:00:00 (CET)Montpellier, France (7643): visibility: 09.12.2018 07:00:00 - 15.12.2018 07:00:00 (CET)Montpellier, France (7643): sunshine duration: 09.12.2018 07:00:00 - 15.12.2018 07:00:00 (CET)Montpellier, France (7643): precipitation: 09.12.2018 07:00:00 - 15.12.2018 07:00:00 (CET)
Date & Time tt [°C] td [°C] tt 5cm [°C] tt -20cm [°C] tt -100cm [°C] ff [km/h] ff [kn] fx [km/h] fx [kn] dd ppp [hPa] vv [km] sd [min] rr [mm]
15.12.2018 07:00:00 - - - - - - - - - - - - - -
15.12.2018 06:00:00 -0,4 -2,9 -5,0 7,6 13,8 2 1 13 7 NNE 1021,3 15 0 0,0
15.12.2018 05:00:00 -1,4 -3,4 -4,8 7,8 13,8 11 6 15 8 N 1020,9 10 0 0,0
15.12.2018 04:00:00 -1,2 -3,1 -5,3 7,9 13,8 7 4 10 5 NNE 1021,0 10 0 0,0
15.12.2018 03:00:00 -0,2 -2,6 -5,2 8,1 13,8 4 2 12 6 NNW 1021,1 11 0 0,0
15.12.2018 02:00:00 -0,2 -2,9 -3,3 8,2 13,8 7 4 11 6 NE 1020,6 11 0 0,0
15.12.2018 01:00:00 1,2 -1,2 -3,3 8,4 13,8 7 4 11 6 NNW 1020,5 11 0 0,0
15.12.2018 00:00:00 -0,1 -2,0 -4,0 8,6 13,8 7 4 13 7 N 1020,4 8 0 0,0
14.12.2018 23:00:00 0,4 -2,2 -3,8 8,7 13,8 8 4 11 6 NNE 1020,1 12 0 0,0
14.12.2018 22:00:00 1,8 -0,9 -2,7 8,9 13,8 5 3 12 6 N 1020,3 12 0 0,0
14.12.2018 21:00:00 2,1 -0,7 -2,2 9,0 13,8 3 2 16 8 NE 1019,5 12 0 0,0
14.12.2018 20:00:00 2,7 -0,1 -1,1 9,1 13,8 12 6 20 11 ENE 1018,7 12 0 0,0
14.12.2018 19:00:00 5,3 2,3 1,3 9,2 13,9 8 4 22 12 NE 1018,0 18 0 0,0
14.12.2018 18:00:00 7,9 4,7 0,4 9,3 13,9 8 4 13 7 WNW 1017,5 36 0 0,0
14.12.2018 17:00:00 9,1 4,5 3,0 9,3 13,9 0 0 11 6 N 1016,6 50 42 0,0
14.12.2018 16:00:00 10,9 6,0 9,0 9,2 13,9 7 4 14 7 N 1016,0 59 60 0,0
14.12.2018 15:00:00 10,4 6,0 10,4 9,1 13,9 8 4 16 9 NE 1015,4 19 60 0,0
14.12.2018 14:00:00 9,1 6,0 10,6 8,9 13,9 12 7 16 9 NNE 1015,1 14 60 0,0
14.12.2018 13:00:00 8,0 6,0 8,2 8,8 13,9 8 4 20 11 NNE 1015,4 13 43 0,0
14.12.2018 12:00:00 7,1 5,6 8,1 8,7 13,9 13 7 19 10 NNE 1015,7 9 28 0,0
14.12.2018 11:00:00 7,0 5,3 9,0 8,7 13,9 10 5 13 7 NNE 1015,7 8 57 0,0
14.12.2018 10:00:00 7,8 6,3 4,1 8,7 13,9 4 2 10 5 NE 1015,1 9 44 0,0
14.12.2018 09:00:00 5,4 4,4 4,3 8,6 13,9 6 3 11 6 ENE 1013,9 8 0 0,0
14.12.2018 08:00:00 5,8 4,8 5,1 8,6 13,9 7 4 12 7 NNE 1013,3 13 0 0,0
14.12.2018 07:00:00 5,9 4,7 5,5 8,6 13,9 7 4 9 5 NE 1012,8 15 0 0,0
14.12.2018 06:00:00 6,5 4,7 5,2 8,6 14,0 5 3 12 7 NE 1012,5 38 0 0,0
14.12.2018 05:00:00 6,9 4,7 5,4 8,6 14,0 9 5 11 6 NW 1012,2 28 0 0,0
14.12.2018 04:00:00 7,0 5,0 5,9 8,6 14,0 9 5 16 8 NNW 1012,2 57 0 0,2
14.12.2018 03:00:00 6,8 5,1 6,0 8,5 14,0 11 6 19 10 NNW 1012,1 36 0 0,0
14.12.2018 02:00:00 6,6 5,1 5,9 8,5 14,0 11 6 23 12 N 1011,8 36 0 0,0
14.12.2018 01:00:00 6,4 5,0 5,9 8,5 14,0 16 9 24 13 N 1011,6 35 0 0,0
14.12.2018 00:00:00 6,4 5,0 5,7 8,5 14,0 16 9 25 14 N 1011,2 31 0 0,0
13.12.2018 23:00:00 6,2 4,8 5,6 8,4 14,1 14 8 25 13 N 1010,3 20 0 0,2
13.12.2018 22:00:00 6,0 4,8 5,6 8,4 14,0 18 10 29 15 NNE 1009,9 13 0 0,6
13.12.2018 21:00:00 5,9 4,9 5,6 8,4 14,0 19 11 31 17 NNE 1009,4 10 0 0,2
13.12.2018 20:00:00 6,1 4,7 5,6 8,4 14,1 22 12 32 18 NNE 1008,8 12 0 1,0
13.12.2018 19:00:00 6,1 4,6 5,5 8,3 14,1 24 13 35 19 NNE 1008,2 14 0 0,2
13.12.2018 18:00:00 5,9 4,4 5,4 8,3 14,1 23 13 36 20 NNE 1007,7 17 0 0,2
13.12.2018 17:00:00 5,8 4,4 5,4 8,3 14,1 23 13 38 20 NNE 1007,2 14 0 0,2
13.12.2018 16:00:00 5,8 4,6 5,4 8,2 14,1 24 13 37 20 NNE 1007,0 11 0 0,2
13.12.2018 15:00:00 5,6 4,4 5,2 8,2 14,1 22 12 32 17 NNE 1007,0 12 0 0,2
13.12.2018 14:00:00 4,9 3,9 4,6 8,1 14,1 19 11 28 15 N 1007,7 7 0 0,6
13.12.2018 13:00:00 4,7 3,0 4,6 8,1 14,1 18 10 27 15 N 1008,6 7 0 0,2
13.12.2018 12:00:00 5,2 1,5 4,9 8,0 14,1 15 8 27 15 N 1009,1 25 0 0,0
13.12.2018 11:00:00 4,9 1,0 3,8 8,0 14,1 17 9 25 14 NNE 1010,0 31 0 0,0
13.12.2018 10:00:00 4,1 0,1 2,9 8,1 14,1 14 8 26 14 N 1010,4 29 0 0,0
13.12.2018 09:00:00 3,3 -0,5 2,3 8,1 14,1 15 8 24 13 N 1010,9 33 0 0,0
13.12.2018 08:00:00 2,9 -0,4 1,9 8,1 14,1 16 9 23 12 NNE 1010,8 33 0 0,0
13.12.2018 07:00:00 2,6 -0,3 1,0 8,1 14,1 9 5 28 15 N 1011,5 36 0 0,0
13.12.2018 06:00:00 2,1 -0,7 -0,1 8,3 14,2 15 8 23 12 NNE 1012,0 34 0 0,0
13.12.2018 05:00:00 1,4 -1,0 -2,2 8,4 14,2 5 3 15 8 NNE 1012,6 28 0 0,0
13.12.2018 04:00:00 1,3 -1,6 -1,9 8,5 14,2 5 3 19 11 N 1013,1 31 0 0,0
13.12.2018 03:00:00 -0,3 -1,9 -2,7 8,6 14,2 14 8 18 10 N 1013,7 18 0 0,0
13.12.2018 02:00:00 -0,1 -2,0 -3,4 8,8 14,2 10 5 13 7 N 1014,3 14 0 0,0
13.12.2018 01:00:00 1,2 -0,9 -3,1 8,9 14,2 4 2 10 6 N 1015,0 19 0 0,0
13.12.2018 00:00:00 1,0 -0,8 -2,0 9,0 14,2 8 4 13 7 NNE 1015,6 15 0 0,0
12.12.2018 23:00:00 1,5 -0,3 -2,2 9,1 14,2 4 2 10 5 NNE 1016,2 14 0 0,0
12.12.2018 22:00:00 3,0 1,0 -1,1 9,3 14,2 6 3 13 7 NNE 1016,3 15 0 0,0
12.12.2018 21:00:00 3,5 1,4 -1,1 9,4 14,2 5 3 10 6 NNE 1016,4 13 0 0,0
12.12.2018 20:00:00 4,9 2,1 0,0 9,4 14,2 4 2 11 6 N 1016,7 16 0 0,0
12.12.2018 19:00:00 6,7 2,8 4,5 9,4 14,3 6 4 8 4 NNW 1016,9 10 0 0,2
12.12.2018 18:00:00 7,1 1,6 4,0 9,4 14,3 0 0 9 5 N 1016,9 60 0 0,0
12.12.2018 17:00:00 7,5 1,1 5,3 9,3 14,3 4 2 8 4 E 1017,2 60 0 0,0
12.12.2018 16:00:00 8,6 -1,0 7,8 9,2 14,3 3 2 5 3 SE 1017,6 60 0 0,0
12.12.2018 15:00:00 9,0 -0,1 8,1 9,1 14,3 5 3 9 5 SSE 1017,7 20 5 0,0
12.12.2018 14:00:00 8,1 1,0 8,0 8,9 14,3 9 5 12 6 SE 1018,1 60 12 0,0
12.12.2018 13:00:00 9,8 -0,1 10,6 8,8 14,3 8 4 16 9 NNE 1018,8 20 42 0,0
12.12.2018 12:00:00 8,6 -1,3 10,8 8,7 14,3 12 7 18 10 NNE 1019,4 60 60 0,0
12.12.2018 11:00:00 7,4 -1,1 5,9 8,7 14,3 9 5 26 14 N 1020,2 46 35 0,0
12.12.2018 10:00:00 6,6 -0,6 3,1 8,7 14,3 18 10 23 12 N 1020,3 10 27 0,0
12.12.2018 09:00:00 4,4 -1,8 0,1 8,7 14,3 4 2 11 6 N 1020,2 57 0 0,0
12.12.2018 08:00:00 3,8 -2,4 1,3 8,8 14,3 10 5 16 9 N 1020,0 60 0 0,0
12.12.2018 07:00:00 4,4 -2,0 0,5 8,9 14,3 10 5 16 9 N 1019,6 60 0 0,0
12.12.2018 06:00:00 4,9 -2,5 -0,1 8,9 14,3 10 5 16 9 N 1019,7 60 0 0,0
12.12.2018 05:00:00 4,6 -2,1 2,0 9,0 14,3 13 7 32 17 N 1020,2 60 0 0,0
12.12.2018 04:00:00 5,3 -1,4 2,0 9,1 14,3 16 9 26 14 NNE 1020,4 60 0 0,0
12.12.2018 03:00:00 4,3 -1,5 2,5 9,2 14,3 15 8 29 16 N 1020,7 60 0 0,0
12.12.2018 02:00:00 4,7 -1,3 2,1 9,3 14,3 16 9 23 12 N 1020,6 60 0 0,0
12.12.2018 01:00:00 4,4 -0,8 0,1 9,4 14,3 13 7 22 12 N 1020,9 60 0 0,0
12.12.2018 00:00:00 3,8 -1,0 -0,4 9,6 14,3 5 3 16 9 N 1021,1 60 0 0,0
11.12.2018 23:00:00 4,3 -0,9 -0,3 9,7 14,3 11 6 15 8 N 1020,8 60 0 0,0
11.12.2018 22:00:00 4,7 -0,5 1,3 9,8 14,3 10 6 18 10 N 1020,7 60 0 0,0
11.12.2018 21:00:00 5,2 -0,2 1,9 9,9 14,3 11 6 22 12 NNE 1020,7 60 0 0,0
11.12.2018 20:00:00 6,7 0,1 0,9 10,0 14,4 11 6 18 10 NNE 1020,4 60 0 0,0
11.12.2018 19:00:00 6,6 -0,6 3,1 10,1 14,4 10 6 20 11 N 1020,2 60 0 0,0
11.12.2018 18:00:00 9,6 0,7 2,7 10,2 14,4 10 5 16 8 N 1020,0 60 0 0,0
11.12.2018 17:00:00 9,4 1,5 5,8 10,1 14,4 10 5 18 10 N 1019,7 60 23 0,0
11.12.2018 16:00:00 13,0 1,6 10,9 10,0 14,4 13 7 23 12 NNE 1019,7 60 60 0,0
11.12.2018 15:00:00 13,9 1,5 13,4 9,9 14,4 17 9 24 13 NNE 1020,0 60 60 0,0
11.12.2018 14:00:00 13,9 1,2 14,3 9,8 14,4 18 10 29 16 N 1020,6 60 60 0,0
11.12.2018 13:00:00 13,2 -0,5 14,7 9,6 14,4 21 11 32 17 NNW 1021,3 60 60 0,0
11.12.2018 12:00:00 12,4 0,2 13,4 9,5 14,4 18 10 29 16 N 1022,3 60 60 0,0
11.12.2018 11:00:00 11,4 1,9 12,9 9,4 14,4 14 8 24 13 N 1022,9 60 60 0,0
11.12.2018 10:00:00 8,7 1,6 6,8 9,5 14,4 8 4 15 8 NW 1023,2 19 60 0,0
11.12.2018 09:00:00 5,6 0,8 -0,3 9,6 14,4 13 7 16 9 WNW 1023,3 50 28 0,0
11.12.2018 08:00:00 2,4 -2,1 -0,9 9,7 14,4 11 6 13 7 NW 1023,4 60 0 0,0
11.12.2018 07:00:00 2,3 -1,5 -0,7 9,8 14,4 8 5 14 7 NW 1023,6 60 0 0,0
11.12.2018 06:00:00 4,6 0,2 1,0 9,9 14,4 8 4 16 9 NW 1023,7 60 0 0,0
11.12.2018 05:00:00 5,3 0,3 -0,8 10,0 14,4 11 6 16 9 WNW 1024,1 60 0 0,0
11.12.2018 04:00:00 4,6 0,5 -1,0 10,2 14,4 10 5 13 7 NW 1024,8 60 0 0,0
11.12.2018 03:00:00 5,4 0,6 -0,8 10,3 14,4 9 5 12 7 W 1025,2 60 0 0,0
11.12.2018 02:00:00 3,8 0,0 -0,5 10,5 14,4 5 3 15 8 N 1025,6 17 0 0,0
11.12.2018 01:00:00 7,1 0,7 1,8 10,6 14,4 13 7 17 9 W 1025,7 60 0 0,0
11.12.2018 00:00:00 6,9 1,0 0,5 10,7 14,4 10 6 15 8 W 1025,9 60 0 0,0
10.12.2018 23:00:00 7,5 1,6 2,8 10,8 14,4 11 6 20 11 W 1026,4 60 0 0,0
10.12.2018 22:00:00 9,9 0,8 3,7 10,9 14,4 16 9 20 11 NW 1026,7 60 0 0,0
10.12.2018 21:00:00 9,8 1,4 5,4 11,0 14,4 12 7 25 13 NW 1026,8 60 0 0,0
10.12.2018 20:00:00 10,5 1,8 7,4 11,1 14,4 16 9 30 16 NW 1026,9 60 0 0,0
10.12.2018 19:00:00 10,7 2,0 7,2 11,2 14,4 19 10 27 15 WNW 1026,6 60 0 0,0
10.12.2018 18:00:00 11,4 1,9 8,1 11,3 14,4 19 10 33 18 WNW 1026,6 60 0 0,0
10.12.2018 17:00:00 12,5 1,5 9,8 11,3 14,4 22 12 39 21 NW 1026,4 60 42 0,0
10.12.2018 16:00:00 14,1 2,0 12,0 11,2 14,4 28 15 39 21 NW 1026,5 52 60 0,0
10.12.2018 15:00:00 14,2 2,1 13,6 11,1 14,4 29 15 45 25 WNW 1026,7 46 60 0,0
10.12.2018 14:00:00 14,4 2,3 15,4 11,0 14,4 29 16 43 23 NW 1027,1 47 60 0,0
10.12.2018 13:00:00 14,3 3,1 15,4 10,9 14,4 31 17 48 26 WNW 1027,5 47 60 0,0
10.12.2018 12:00:00 14,1 2,9 15,1 10,8 14,4 33 18 49 26 WNW 1028,2 20 60 0,0
10.12.2018 11:00:00 13,6 2,8 14,6 10,8 14,4 33 18 51 27 WNW 1029,0 20 60 0,0
10.12.2018 10:00:00 13,0 2,8 11,5 10,8 14,4 23 13 37 20 WNW 1029,0 60 60 0,0
10.12.2018 09:00:00 11,7 2,7 8,1 10,9 14,4 23 12 37 20 W 1028,6 57 29 0,0
10.12.2018 08:00:00 10,9 1,9 8,5 10,9 14,4 24 13 40 22 W 1027,9 60 0 0,0
10.12.2018 07:00:00 11,4 2,7 8,9 11,0 14,4 28 15 46 25 WNW 1027,5 60 0 0,0
10.12.2018 06:00:00 11,5 2,8 9,2 11,0 14,4 27 15 49 26 WNW 1027,4 60 0 0,0
10.12.2018 05:00:00 11,6 2,6 8,8 11,1 14,4 25 13 43 23 WNW 1027,2 60 0 0,0
10.12.2018 04:00:00 12,0 2,4 9,4 11,2 14,4 30 16 47 25 WNW 1027,0 60 0 0,0
10.12.2018 03:00:00 12,6 2,4 10,0 11,3 14,4 26 14 55 30 WNW 1027,0 60 0 0,0
10.12.2018 02:00:00 12,5 2,9 9,5 11,3 14,4 30 16 53 28 WNW 1027,0 60 0 0,0
10.12.2018 01:00:00 12,8 1,5 9,9 11,4 14,5 34 18 52 28 NW 1026,3 60 0 0,0
10.12.2018 00:00:00 12,8 2,0 9,7 11,5 14,4 31 17 49 27 W 1026,8 60 0 0,0
09.12.2018 23:00:00 13,0 2,2 10,7 11,6 14,4 25 14 54 29 W 1026,2 60 0 0,0
09.12.2018 22:00:00 13,1 3,7 11,1 11,6 14,4 32 17 61 33 WNW 1025,6 60 0 0,0
09.12.2018 21:00:00 13,0 3,6 11,5 11,7 14,4 40 22 74 40 NW 1024,9 60 0 0,0
09.12.2018 20:00:00 13,8 2,4 11,6 11,8 14,4 48 26 71 38 NW 1023,6 60 0 0,0
09.12.2018 19:00:00 13,5 3,0 11,4 11,9 14,4 36 19 70 38 NW 1023,3 60 0 0,0
09.12.2018 18:00:00 14,1 4,4 11,7 11,9 14,4 32 18 61 33 NW 1022,8 60 0 0,0
09.12.2018 17:00:00 14,4 4,1 13,0 11,9 14,5 23 12 50 27 NNW 1022,3 60 42 0,0
09.12.2018 16:00:00 15,8 5,7 14,1 11,9 14,5 34 18 68 37 WNW 1021,7 60 6 0,0
09.12.2018 15:00:00 16,0 4,1 14,8 11,7 14,4 37 20 59 32 WNW 1020,6 49 26 0,0
09.12.2018 14:00:00 15,9 6,3 14,7 11,6 14,5 31 17 52 28 WNW 1020,8 60 6 0,0
09.12.2018 13:00:00 16,3 5,8 15,1 11,5 14,5 22 12 55 30 WNW 1020,7 20 8 0,0
09.12.2018 12:00:00 17,2 6,1 14,9 11,4 14,5 30 16 63 34 WNW 1021,1 60 32 0,0
09.12.2018 11:00:00 15,9 6,3 14,0 11,4 14,4 28 15 44 24 WNW 1021,0 19 1 0,0
09.12.2018 10:00:00 15,4 5,6 13,9 11,3 14,4 22 12 53 29 W 1021,3 58 34 0,0
09.12.2018 09:00:00 15,3 6,0 13,0 11,3 14,5 23 13 48 26 W 1021,0 60 1 0,0
09.12.2018 08:00:00 15,2 6,7 13,5 11,2 14,4 29 16 55 30 W 1020,8 60 0 0,0
09.12.2018 07:00:00 15,3 7,1 13,5 11,2 14,5 32 17 48 26 W 1021,1 60 0 0,0

tt = temperature
td = dewpoint
tt 5cm = temperature 5cm
tt -20cm = temperature -20cm
tt -100cm = temperature -100cm
ff = wind speed
fx = gusts
dd = wind direction
ppp = reduced air pressure
vv = visibility
sd = sunshine duration
rr = precipitation

Next stations